User: anonymous   Login
Location: Kott?ru
(16.6209°N, 80.6208°E)
Time: 05:20:10
(UTC+00:00)
Language:

SPROUT - Orbit

View from above orbital plane
View from above orbital plane
View from above satellite
View from above satellite

Ground track
Ground track

The orbit data is extracted from the following two-line orbital elements,

1 39770U 14029E   24105.85285211  .00102219  00000-0  35294-2 0  9996
2 39770  98.0098 252.6505 0003169 303.0697  57.0237 15.29524619537917
Epoch (UTC): 14 April 2024 20:28:06
Eccentricity: 0.0003169
inclination: 98.0098°
perigee height: 475 km
apogee height: 479 km
right ascension of ascending node: 252.6505°
argument of perigee: 303.0697°
revolutions per day: 15.29524619
mean anomaly at epoch: 57.0237°
orbit number at epoch: 53791

The dashed part of the orbit path shows where the satellite is in the earth's shadow,  

DLR